LRC652 MROC-MGGT

Flight info

Callsign LRC652
Flight time N/A
Altitude 38000
Route NANJO4U ULAPO UA502 MGA UA317 CAT
Aircraft A20N/M-SDE2E3FGHIRWXY/LB1

Departure

Time 2026-04-29 23:14
Airport Juan Santamaría International Airport (MROC)

Arrival

Time N/A
Airport La Aurora International Airport (MGGT)
Time Latitude Longitude Altitude Speed Heading
2026-04-29 22:57 9.99711 -84.20435 3097 ft 0 kts 339°
2026-04-29 23:06 9.99701 -84.20431 3097 ft 2 kts 339°
2026-04-29 23:06 9.99686 -84.20425 3097 ft 2 kts 339°
2026-04-29 23:06 9.99677 -84.20422 3097 ft 1 kts 348°
2026-04-29 23:07 9.99662 -84.20425 3097 ft 2 kts 35°
2026-04-29 23:07 9.99655 -84.20432 3097 ft 0 kts 65°
2026-04-29 23:07 9.99656 -84.20431 3097 ft 2 kts 62°
2026-04-29 23:07 9.99668 -84.20399 3097 ft 4 kts 70°
2026-04-29 23:08 9.99673 -84.20385 3097 ft 0 kts 70°
2026-04-29 23:10 9.99684 -84.20355 3097 ft 10 kts 71°
2026-04-29 23:10 9.99712 -84.20283 3098 ft 12 kts 69°
2026-04-29 23:10 9.99754 -84.20168 3098 ft 20 kts 70°
2026-04-29 23:11 9.99795 -84.20060 3099 ft 5 kts 70°
2026-04-29 23:11 9.99796 -84.20056 3099 ft 0 kts 70°
2026-04-29 23:12 9.99797 -84.20055 3099 ft 0 kts 70°
2026-04-29 23:12 9.99800 -84.20044 3099 ft 2 kts 72°
2026-04-29 23:12 9.99802 -84.20036 3099 ft 0 kts 78°
2026-04-29 23:13 9.99794 -84.20000 3099 ft 10 kts 129°
2026-04-29 23:13 9.99714 -84.20023 3099 ft 21 kts 253°
2026-04-29 23:14 9.99590 -84.20342 3098 ft 81 kts 249°
2026-04-29 23:14 9.99318 -84.21073 3095 ft 138 kts 249°
2026-04-29 23:14 9.98938 -84.22100 3300 ft 164 kts 249°
2026-04-29 23:14 9.98537 -84.23177 3858 ft 164 kts 249°
2026-04-29 23:15 9.98127 -84.24280 4434 ft 166 kts 249°
2026-04-29 23:15 9.97881 -84.25018 4786 ft 166 kts 258°
2026-04-29 23:15 9.98089 -84.26170 5018 ft 178 kts 306°
2026-04-29 23:15 9.99101 -84.26973 5257 ft 192 kts 326°
2026-04-29 23:16 10.00267 -84.27736 5519 ft 204 kts 324°
2026-04-29 23:16 10.01467 -84.28571 5787 ft 217 kts 324°
2026-04-29 23:16 10.02752 -84.29501 6063 ft 234 kts 323°
2026-04-29 23:16 10.04112 -84.30505 6421 ft 247 kts 323°
2026-04-29 23:17 10.05491 -84.31535 7217 ft 242 kts 324°
2026-04-29 23:17 10.06832 -84.32538 7880 ft 244 kts 323°
2026-04-29 23:17 10.08204 -84.33564 8504 ft 246 kts 324°
2026-04-29 23:17 10.09592 -84.34605 9122 ft 250 kts 324°
2026-04-29 23:18 10.11003 -84.35668 9739 ft 256 kts 323°
2026-04-29 23:18 10.12458 -84.36809 10197 ft 274 kts 322°
2026-04-29 23:18 10.14005 -84.38049 10711 ft 292 kts 322°
2026-04-29 23:18 10.15639 -84.39348 11169 ft 309 kts 321°
2026-04-29 23:19 10.17372 -84.40730 11723 ft 319 kts 322°
2026-04-29 23:19 10.19124 -84.42133 12371 ft 325 kts 322°
2026-04-29 23:19 10.20908 -84.43558 13002 ft 329 kts 322°
2026-04-29 23:19 10.22727 -84.45007 13633 ft 333 kts 322°
2026-04-29 23:20 10.24562 -84.46471 14270 ft 337 kts 322°
2026-04-29 23:20 10.26394 -84.47931 14871 ft 339 kts 322°
2026-04-29 23:20 10.28279 -84.49432 15428 ft 344 kts 321°
2026-04-29 23:20 10.30166 -84.50936 16034 ft 348 kts 321°
2026-04-29 23:21 10.32094 -84.52472 16638 ft 352 kts 321°
2026-04-29 23:21 10.34003 -84.53994 17189 ft 353 kts 321°
2026-04-29 23:21 10.35963 -84.55553 17768 ft 357 kts 321°
2026-04-29 23:21 10.37915 -84.57101 18352 ft 360 kts 321°
2026-04-29 23:22 10.39881 -84.58662 18905 ft 362 kts 321°
2026-04-29 23:22 10.41882 -84.60253 19469 ft 364 kts 320°
2026-04-29 23:22 10.42558 -84.60789 19657 ft 365 kts 320°